This is the latest recevied weather packets stored in our database for station/object W8DRH-13. If no packets are shown the sender has not sent any weather packets the latest 10 day(s).
| Time | Temp. | Humidity | Pressure | Rain* | Wind** | Luminosity | Snow |
|---|---|---|---|---|---|---|---|
| 1777512004 | 8.89° C | 97% | 1009.1 hPa | 0 mm | - | 0 W/m² | - |
| 1777511703 | 8.89° C | 97% | 1008.8 hPa | 0 mm | - | 0 W/m² | - |
| 1777511400 | 8.89° C | 97% | 1008.8 hPa | 0 mm | - | 0 W/m² | - |
| 1777511096 | 9.44° C | 97% | 1009 hPa | 0 mm | - | 0 W/m² | - |
| 1777510791 | 9.44° C | 97% | 1008.9 hPa | 0 mm | - | 0 W/m² | - |
| 1777510489 | 9.44° C | 97% | 1008.8 hPa | 0 mm | - | 0 W/m² | - |
| 1777510184 | 9.44° C | 97% | 1008.6 hPa | 0 mm | - | 0 W/m² | - |
| 1777509882 | 9.44° C | 97% | 1008.6 hPa | 0 mm | - | 0 W/m² | - |
| 1777509576 | 9.44° C | 97% | 1008.8 hPa | 0 mm | - | 0 W/m² | - |
| 1777509274 | 9.44° C | 97% | 1008.7 hPa | 0 mm | - | 0 W/m² | - |
| 1777508971 | 9.44° C | 97% | 1008.8 hPa | 0 mm | - | 0 W/m² | - |
| 1777508668 | 10° C | 97% | 1008.7 hPa | 0 mm | - | 0 W/m² | - |
| 1777508366 | 10° C | 97% | 1008.7 hPa | 0 mm | - | 1 W/m² | - |
| 1777508062 | 10° C | 97% | 1008.7 hPa | 0 mm | - | 3 W/m² | - |
| 1777507759 | 10° C | 97% | 1008.4 hPa | 0 mm | - | 6 W/m² | - |
| 1777507456 | 10° C | 96% | 1008.5 hPa | 0 mm | - | 12 W/m² | - |
| 1777507153 | 10° C | 96% | 1008.7 hPa | 0 mm | - | 18 W/m² | - |
| 1777506851 | 10° C | 96% | 1008.8 hPa | 0 mm | - | 7 W/m² | - |
| 1777506548 | 10° C | 96% | 1008.7 hPa | 0 mm | - | 3 W/m² | - |
| 1777506243 | 10° C | 96% | 1008.4 hPa | 4.83 mm | - | 11 W/m² | - |
| 1777505940 | 10° C | 96% | 1008.5 hPa | 8.89 mm | - | 19 W/m² | - |
| 1777505635 | 10° C | 96% | 1008.5 hPa | 6.1 mm | - | 10 W/m² | - |
| 1777505333 | 10° C | 96% | 1008.3 hPa | 1.78 mm | - | 6 W/m² | - |
| 1777505029 | 10° C | 95% | 1008.3 hPa | 0 mm | - | 15 W/m² | - |
| 1777504726 | 10° C | 95% | 1008.1 hPa | 0 mm | - | 8 W/m² | - |
* Rain latest hour (hover to see other rain measurements)
** Current wind speed in m/s (hover to see current wind gust speed)